SLVR

Viru Viru International Airport

Airport
ICAO code
SLVR
IATA Code
VVI
Summary
ICAO Region
CARSAM
ICAO Territory
Location

Santa Cruz de la Sierra, Santa Cruz

Serving
Santa Cruz
Elevation
1224 ft
Coordinates
17° 38' 41" S , 63° 8' 7" W
KCC
Metar
Observation
SLVR 281900Z 16005KT 4000 -TSRA BKN023 FEW030CB OVC070 20/19 Q1014
Station
Viru-Viru
Date/Time
2022-09-28 19:00:00
Wind direction
160°
Wind speed
05 kts
Lowest cloud amount
broken clouds
Temperature
20°C
Dew point
19°C
Humidity
93%
QNH
1014 hPa
Weather condition
n/a

International Airport serving Santa Cruz de la Sierra, Bolivia.

Climatology

Tropical Savanna climate (Köppen climate classification Aw).

Runways

Designator Length Width Surface Rops
16/34 3500 45 CON Yes/Yes

Airport map

Aerial View

SKYbrary Partners:

Safety knowledge contributed by: